EW8371 Weather Reports


time (UTC)temp
C
wind
direction
speed
KPH
gust
KPH
rain 1hr
cm
rain 24hr
cm
rain mn
cm
humidity
%
barometer
mb
20260505184526 23 211 11.3 22.5 0.00 0.18 0.00 43 1001.3
20260505183023 23 222 19.3 40.2 0.00 0.18 0.00 42 1001.3
20260505181520 23 155 20.9 40.2 0.00 0.18 0.00 41 1001.2
20260505180017 23 221 17.7 32.2 0.00 0.18 0.00 43 1001.0
20260505174516 24 222 12.9 38.6 0.00 0.18 0.00 39 1000.9
20260505173014 25 197 14.5 29.0 0.00 0.18 0.00 39 1001.1
20260505171512 24 173 17.7 43.5 0.00 0.18 0.00 39 1000.9
20260505170016 24 191 14.5 43.5 0.00 0.18 0.00 36 1001.1
20260505164507 25 207 20.9 43.5 0.00 0.18 0.00 36 1001.4
20260505163010 24 187 22.5 40.2 0.00 0.18 0.00 38 1001.4
20260505161626 23 191 16.1 40.2 0.00 0.18 0.00 39 1001.7
20260505161502 23 189 17.7 41.8 0.00 0.18 0.00 40 1001.7
20260505153052 23 207 20.9 38.6 0.00 0.18 0.18 44 1002.0
20260505151547 22 185 12.9 30.6 0.00 0.18 0.18 47 1002.1
20260505124527 17 206 16.1 37.0 0.00 0.18 0.18 59 1003.9
20260505123027 18 223 17.7 25.7 0.00 0.18 0.18 58 1003.5
20260505121528 17 186 8.0 32.2 0.00 0.18 0.18 63 1003.5
20260505120051 17 202 11.3 25.7 0.00 0.18 0.18 63 1003.6
20260505114523 16 181 12.9 19.3 0.00 0.18 0.18 68 1003.7
20260505113021 13 174 6.4 11.3 0.00 0.18 0.18 61 1003.8
20260505111551 11 153 3.2 8.0 0.00 0.18 0.18 21 1003.8
20260505101542 10 277 0.0 0.0 0.00 0.18 0.18 31 1003.2
20260505100041 10 277 0.0 0.0 0.00 0.18 0.18 33 1003.1
20260505094536 10 277 0.0 0.0 0.05 0.18 0.18 37 1003.3
20260505093037 11 332 1.6 3.2 0.18 0.18 0.18 42 1003.3
20260505091531 11 216 0.0 3.2 0.18 0.18 0.18 51 1003.1
20260505090038 12 181 0.0 4.8 0.18 0.18 0.18 66 1003.2
20260505084521 13 217 1.6 9.7 0.13 0.13 0.13 68 1003.6
20260505083018 13 355 0.0 0.0 0.00 0.00 0.00 62 1003.1
20260505081517 14 143 0.0 1.6 0.00 0.00 0.00 59 1003.1
20260505080016 14 163 1.6 8.0 0.00 0.00 0.00 58 1003.3
20260505074514 14 132 3.2 9.7 0.00 0.00 0.00 57 1003.4
20260505073024 14 175 6.4 12.9 0.00 0.00 0.00 58 1003.2
20260505071517 14 181 4.8 12.9 0.00 0.00 0.00 57 1003.2
20260505070013 14 195 4.8 12.9 0.00 0.00 0.00 56 1003.0
20260505064543 14 162 4.8 12.9 0.00 0.00 0.00 56 1003.2
20260505063040 14 171 8.0 12.9 0.00 0.00 0.00 56 1003.3
20260505061524 14 204 4.8 14.5 0.00 0.00 0.00 56 1003.3
20260505060008 14 188 8.0 16.1 0.00 0.00 0.00 56 1003.3
20260505054506 14 173 6.4 9.7 0.00 0.00 0.00 56 1003.3
20260505053005 14 176 6.4 12.9 0.00 0.00 0.00 56 1003.4
20260505051506 15 170 8.0 14.5 0.00 0.00 0.00 55 1003.4
20260505041601 15 154 6.4 14.5 0.00 0.00 0.00 53 1003.4
20260505040101 15 192 4.8 11.3 0.00 0.00 0.00 52 1003.4
20260505034600 15 178 4.8 12.9 0.00 0.00 0.00 52 1003.3
20260505033056 15 196 6.4 14.5 0.00 0.00 0.00 51 1003.2
20260505031609 14 163 6.4 11.3 0.00 0.00 0.00 53 1003.3
20260505030054 14 163 6.4 11.3 0.00 0.00 0.00 54 1003.5
20260505024559 13 171 3.2 11.3 0.00 0.00 0.00 55 1003.5
20260505023102 13 144 3.2 8.0 0.00 0.00 0.00 54 1003.6
20260505021547 14 138 1.6 4.8 0.00 0.00 0.00 53 1003.7
20260505020044 14 150 1.6 4.8 0.00 0.00 0.00 52 1003.6
20260505014544 15 150 0.0 4.8 0.00 0.00 0.00 51 1003.8
20260505013040 15 144 1.6 4.8 0.00 0.00 0.00 50 1003.7
20260505011540 15 144 1.6 8.0 0.00 0.00 0.00 50 1003.6
20260505010038 15 157 1.6 4.8 0.00 0.00 0.00 49 1003.5
20260505004546 15 142 1.6 4.8 0.00 0.00 0.00 49 1003.3
20260505003032 16 156 0.0 1.6 0.00 0.00 0.00 48 1003.3
20260505001531 17 156 0.0 0.0 0.00 0.00 0.00 44 1002.9
20260505000047 17 183 1.6 8.0 0.00 0.00 0.00 41 1002.9
20260504234531 18 173 3.2 12.9 0.00 0.00 0.00 39 1002.8
20260504233028 18 208 3.2 14.5 0.00 0.00 0.00 39 1002.7
20260504231530 19 179 8.0 22.5 0.00 0.00 0.00 37 1002.6
20260504230027 20 194 9.7 24.1 0.00 0.00 0.00 36 1002.6
20260504224525 20 220 12.9 22.5 0.00 0.00 0.00 35 1002.5
20260504223023 20 211 11.3 29.0 0.00 0.00 0.00 36 1002.7
20260504221521 20 200 8.0 24.1 0.00 0.00 0.00 35 1002.7
20260504220021 20 187 12.9 24.1 0.00 0.00 0.00 35 1002.7
20260504214521 20 216 9.7 22.5 0.00 0.00 0.00 35 1002.7
20260504213050 20 225 11.3 27.4 0.00 0.00 0.00 36 1002.7
20260504211549 20 170 9.7 29.0 0.00 0.00 0.00 34 1002.8
20260504210050 20 159 9.7 24.1 0.00 0.00 0.00 36 1002.9
20260504204544 20 220 9.7 22.5 0.00 0.00 0.00 36 1003.1
20260504203047 20 210 16.1 27.4 0.00 0.00 0.00 35 1003.4
20260504201543 20 191 11.3 25.7 0.00 0.00 0.00 37 1003.3
20260504200038 20 222 11.3 25.7 0.00 0.00 0.00 36 1003.6
20260504194539 20 196 9.7 29.0 0.00 0.00 0.00 36 1003.7
20260504193035 20 183 12.9 27.4 0.00 0.00 0.00 37 1003.8
20260504191536 20 167 8.0 24.1 0.00 0.00 0.00 38 1004.0
20260504190029 19 195 6.4 32.2 0.00 0.00 0.00 37 1004.0